www.pogodaiklimat.ru

Погода и климат >> Архив погоды >> Китай >> Хунань >> Чандэ


ПОГОДА в Чандэ

  • Прогноз погоды в Чандэ
  • Монитор погоды в Чандэ

АРХИВ ПОГОДЫ в Чандэ

Время (UTC), дата Ветер
(напр.,м/с)
 
Видим.   Явления Облачность Т
(С)
Тd
(С)
f
(%)
Тe
(С)
Тes
(С)
Комфортность P
(гПа)
Po
(гПа)
Тmin
(С)
Tmax
(С)
R
(мм)
R24
(мм)
S
(см)
21 17.06 СЗ 2 200 м туман н/о +20.9 +20.9 100 +27 +27 душно 1007.1 1003.0
00 18.06 штиль 0 600 м слаб. дождь 10/10 300 м
[]
+20.9 +20.9 100 +26 +26 душно 1008.0 990.4 12
03 18.06 С 1 200 м дождь {туман} 10/10 300 м
[]
+21.7 +21.7 100 +28 +28 душно 1008.4 1004.3
06 18.06 СЗ 1 7000 м дымка {дождь} 10/10 1000 м
[]
+23.4 +23.4 100 +33 +33 очень
душно
1007.6 990.1 +20.8 20
09 18.06 СВ 1 11 км 10/10 1000 м
[]
+23.5 +23.5 100 +32 +32 очень
душно
1005.8 1001.8
12 18.06 ЮВ 1 8000 м 10/10 2000 м
[]
+22.7 +22.7 100 +31 +31 очень
душно
1006.4 988.9
15 18.06 З 2 2900 м дымка н/о +22.6 +22.6 100 +31 +31 очень
душно
1007.4 1003.3
18 18.06 З 2 2100 м дымка ?/? +22.2 +22.2 100 +30 +30 очень
душно
1005.5 988.1 +23.9
21 18.06 З 1 1800 м дымка н/о +22.1 +22.1 100 +29 +29 очень
душно
1005.6 1001.5
00 19.06 СЗ 1 4200 м дымка 9/9
[]
+23.6 +23.6 100 +32 +32 очень
душно
1006.1 988.7 2
03 19.06 В 1 7000 м 8/8 600 м
[]
+27.6 +25.8 90 +41 +46 опасность
перегрева
1005.3 1001.3
06 19.06 В 2 16 км 5/5 600 м
[]
+31.3 +26.1 74 +47 +57 опасность
перегрева
1003.1 986.0 +22.0
09 19.06 В 2 16 км 10/10 1000 м
[]
+30.3 +26.2 79 +46 +46 опасность
перегрева
1001.4 997.5
12 19.06 В 4 2400 м слаб. дождь 9/9 600 м
[]
+27.4 +27.1 98 +43 +43 опасность
перегрева
1001.6 984.4 2
15 19.06 В 3 19 км н/о +26.9 +25.5 92 +39 +39 очень
душно
1002.8 998.8
18 19.06 З 1 6000 м н/о +25.5 +25.0 97 +36 +36 очень
душно
1001.5 984.5 +32.9
21 19.06 З 2 100 м туман н/о +24.3 +24.3 100 +34 +34 очень
душно
1001.2 997.2
00 20.06 штиль 0 4600 м дымка 8/8
[]
+26.7 +26.7 100 +41 +43 опасность
перегрева
1001.9 984.8
03 20.06 ЮЗ 2 29 км 6/6
[]
+31.8 +25.6 70 +47 +54 опасность
перегрева
1001.2 997.3
06 20.06 Ю 1 30 км 5/5 600 м
[]
+35.2 +24.8 55 +48 +60 опасность
перегрева
999.0 982.1 +24.2
09 20.06 С 3 30 км 9/9 600 м
[]
+31.8 +26.1 72 +48 +48 опасность
перегрева
998.1 994.2
12 20.06 В 1 30 км 9/9 600 м
[]
+32.1 +24.4 64 +45 +45 опасность
перегрева
998.5 981.6
15 20.06 В 2 18 км н/о +29.5 +26.5 84 +45 +45 опасность
перегрева
999.9 996.0
18 20.06 С 5 3500 м дымка ?/? +26.3 +26.1 99 +39 +39 очень
душно
999.5 982.6 +36.6
21 20.06 С 3 4600 м дымка н/о +24.7 +24.7 100 +35 +35 очень
душно
1000.5 996.5
00 21.06 С 3 13 км 10/10 1500 м
[]
+23.7 +23.4 98 +32 +32 очень
душно
1002.3 985.2
03 21.06 С 4 6000 м в посл. час дождь 10/10 1000 м
[]
+22.7 +22.7 100 +31 +31 очень
душно
1002.9 998.9
06 21.06 С 3 1600 м дождь 10/10 300 м
[]
+22.4 +22.4 100 +30 +30 очень
душно
1002.9 985.6 +22.3 9
09 21.06 С 2 2100 м сильн. дождь 10/10 200 м
[]
+22.2 +22.2 100 +30 +30 очень
душно
1003.1 999.0
12 21.06 СЗ 3 700 м дымка {дождь} 10/10 300 м
[]
+22.2 +22.2 100 +30 +30 очень
душно
1003.8 986.4 32
15 21.06 С 4 1900 м дымка н/о +22.2 +22.2 100 +30 +30 очень
душно
1004.7 1000.6
18 21.06 С 5 1500 м в посл. час туман ?/? +21.9 +21.9 100 +29 +29 очень
душно
1003.4 986.0 +26.2 0.7
21 21.06 С 4 2000 м дождь н/о +21.5 +21.5 100 +28 +28 очень
душно
1004.0 999.9
00 22.06 С 5 2200 м слаб. дождь 10/10 1000 м
[]
+21.2 +21.2 100 +27 +27 душно 1005.0 987.5 11
03 22.06 С 5 7000 м {дождь} 10/10 1000 м
[]
+22.1 +22.1 100 +29 +29 очень
душно
1004.7 1000.6
06 22.06 С 7 700 м сильн. дождь 10/10 1000 м
[]
+21.2 +21.2 100 +27 +27 душно 1005.4 987.9 +21.1 10
09 22.06 С 5 2500 м дождь 10/10 1000 м
[]
+20.7 +20.7 100 +26 +26 душно 1005.0 1000.9
12 22.06 С 4 2300 м слаб. дождь 10/10 1000 м
[]
+20.7 +20.7 100 +26 +26 душно 1006.5 989.0 26
15 22.06 С 6 6000 м дымка н/о +20.5 +20.5 100 +25 +25 комфорт 1007.4 1003.3
18 22.06 С 4 15 км ?/? +20.7 +19.5 93 +25 +25 комфорт 1005.2 987.7 +22.6 0.7
21 22.06 С 2 30 км н/о +21.8 +16.7 73 +26 +26 душно 1007.1 1003.0
00 23.06 З 2 19 км 10/10 1500 м
[]
+21.3 +18.5 84 +26 +26 душно 1008.6 991.0 0.7
03 23.06 штиль 0 12 км 9/9 2000 м
[]
+27.0 +21.1 70 +34 +37 очень
душно
1008.7 1004.7
06 23.06 В 5 16 км 9/9
[]
+28.7 +17.9 52 +33 +34 очень
душно
1007.3 990.0 +20.2
09 23.06 В 2 29 км 4/4
[]
+28.5 +16.8 49 +32 +36 душно 1006.6 1002.6
12 23.06 В 2 25 км ясно +25.2 +17.7 63 +29 +29 душно 1007.2 989.8
15 23.06 штиль 0 22 км слаб. дождь н/о +25.5 +17.2 60 +29 +29 душно 1008.4 1004.4
18 23.06 СЗ 2 17 км н/о +23.4 +17.4 69 +29 +29 душно 1007.2 990.0 +29.2
21 23.06 З 2 8000 м н/о +21.2 +19.1 88 +26 +26 душно 1007.3 1003.2
00 24.06 штиль 0 9000 м 8/8
[]
+23.7 +20.6 83 +30 +31 очень
душно
1008.5 991.1
03 24.06 СВ 1 9000 м 9/9
[]
+28.8 +21.6 65 +37 +39 очень
душно
1008.2 1004.2
06 24.06 З 1 14 км 9/9
[]
+30.0 +18.4 50 +35 +37 очень
душно
1007.2 990.0 +20.9
09 24.06 В 3 15 км 4/4 600 м
[]
+29.5 +19.2 54 +35 +38 очень
душно
1006.2 1002.2
12 24.06 В 2 14 км 6/6
[]
+25.6 +19.5 69 +31 +31 очень
душно
1007.0 989.7
15 24.06 В 1 12 км н/о +25.8 +19.0 66 +31 +31 очень
душно
1008.0 1004.0

 

Местоположение метеостанции Чандэ (Хунань, Китай): широта 29.05 долгота 111.68 высота над уровнем моря 35 м.

В архиве по умолчанию представлена погода в Чандэ за последнюю неделю. Архивные данные за месяц целиком и за предыдущие месяцы, начиная с января 2011 года, Вы можете получить, выбрав интересующий диапазон дат из раскрывающегося списка и нажав кнопку "Ввод!".


*Определитесь, кто Вы:
робот инопланетянин человек

Внимание! Время в таблицах - всемирное. Для получения местного времени необходимо прибавить поправку, которая равна 8 ч.

Смотрите также архив погоды в соседних городах и на ближайших метеорологических станциях:

Погода в Юаньлине (Хунань, Китай) (140 км)
Погода в Юэяне (Хунань, Китай) (141 км)
Погода в Чанше (Хунань, Китай) (147 км)
Погода в Янлинге (Шэньси, Китай) (150 км)
Погода в Санчжи (Хунань, Китай) (153 км)
Погода в Ичане (Хубэй, Китай) (187 км)
Погода в Шаояне (Хунань, Китай) (204 км)
Погода в Намвьете (Хунань, Китай) (219 км)
Погода в Жонсяне (Хубэй, Китай) (251 км)
Погода в Эньши (Хубэй, Китай) (254 км)

Пояснения к столбцам:

Ветер - указаны скорость ветра в м/с - средняя за 10 мин, порывы в срок и между сроками (в фигурных скобках) и направление, откуда дует ветер: С - северный, СВ - северо-восточный, В - восточный, ЮВ - юго-восточный, Ю - южный, ЮЗ - юго-западный, З - западный, СЗ - северо-западный.
Видимость - горизонтальная дальность видимости в метрах или километрах. При видимости от 1 до 10 км при отсутствии осадков обычно наблюдается дымка, при ухудшении видимости до 1 км и менее - туман. В сухую погоду видимость может ухудшаться дымом, пылью или мглою.
Явления - указаны атмосферные явления, наблюдавшиеся в срок или в последний час перед сроком; фигурными скобками обозначены явления, наблюдавшиеся между сроками (за 1-3 часа до срока); квадратными скобками обозначены град или гололедные отложения с указанием их диаметра в мм.
Облачность - указаны через наклонную черту общая и нижняя облачность в баллах и высота нижней границы облаков в метрах; квадратными скобками обозначены формы облаков: Ci - перистые, Cs - перисто-слоистые, Cc - перисто-кучевые, Ac - высококучевые, As - высокослоистые, Sc - слоисто-кучевые, Ns - слоисто-дождевые, Cu - кучевые, Cb - кучево-дождевые. Подробнее классификацию облаков см. в Атласе облаков (PDF).
T - Температура воздуха - температура, измеренная на высоте 2 м над землей.
Td - Температура точки росы - температура, при понижении до которой содержащийся в воздухе водяной пар достигнет насыщения.
f - Относительная влажность воздуха - влажноcть воздуха, измеренная на высоте 2 м над землей.
Te - Эффективная температура - температура, которую ощущает одетый по сезону человек в тени. Характеристика душности погоды. При расчете учитывается влияние влажности воздуха и скорости ветра на теплоощущения человека.
Tes - Эффективная температура на солнце - температура, которую ощущает человек, с поправкой на солнечный нагрев. Характеристика знойности погоды. Зависит от высоты солнца над горизонтом, облачности и скорости ветра. Ночью, в пасмурную погоду, а также при ветре 12 м/с и более поправка равна нулю.
P - Атмосферное давление - приведенное к уровню моря атмосферное давление.
Po - Атмосферное давление - измеренное на уровне метеостанции атмосферное давление.
Tmin - Минимальная температура - минимум температуры воздуха на высоте 2 м над землей.
Tmax - Максимальная температура - максимум температуры воздуха на высоте 2 м над землей.
R - Количество осадков - Количество выпавших осадков за период времени, мм. При наведении курсора мыши на число - период времени, за который выпало указанное количество осадков.
R24 - Количество осадков - Количество выпавших осадков за 24 часа, мм.
S - Снежный покров - Высота снежного покрова, см. При наведении курсора мыши на число - состояние снежного покрова и степень покрытия местности в баллах.